Wind_Speed
8 7 7 6 6 6 5 5 6 5 3 2 2 3 4 6 5 4 5 6 6 7 8 7 7 6 6 6 7 8 8 9 8 7 10 12 12 13 14 14 15 16 16
6 7 7 6 6 6 6 6 4 4 3 3 2 3 2 4 5 6 7 5 6 6 7 7 7 7 7 5 6 6 7 10 9 5 10 12 12 12 11 12 13 14 14
9 7 7 7 6 6 8 7 5 4 4 5 5 4 3 4 4 7 7 8 8 8 7 7 6 7 7 7 7 7 6 7 9 8 10 13 12 10 13 13 13 13 14
9 8 8 8 7 6 9 9 7 6 5 5 4 5 5 5 6 7 9 10 10 10 9 9 8 8 9 9 8 8 8 7 7 8 9 10 11 12 11 12 13 13 13
11 9 9 7 10 9 8 8 7 5 5 8 8 7 8 9 10 10 10 12 10 11 10 11 9 9 10 10 10 9 9 10 8 8 9 10 11 11 11 11 12 12 12
13 13 12 13 13 13 10 10 11 10 7 8 10 12 14 15 15 15 14 15 13 13 15 13 9 9 12 12 11 11 11 11 11 10 10 11 10 11 11 12 11 11 11
15 15 16 15 16 15 15 13 10 10 9 9 7 9 13 15 16 17 16 14 15 15 17 21 23 19 13 15 14 13 13 14 14 13 12 11 12 11 11 11 12 11 11
17 16 16 15 16 13 15 14 12 10 10 10 5 5 3 2 1 5 8 14 16 13 15 20 18 17 17 14 14 14 13 14 15 16 15 14 13 13 13 12 12 12 12
19 19 18 16 15 16 14 13 13 14 9 8 12 6 2 2 8 5 3 5 10 16 18 18 22 20 19 18 16 14 15 15 16 18 18 17 16 15 14 14 14 14 14
22 20 19 18 17 14 14 14 13 13 11 10 9 12 13 7 2 4 3 6 7 10 13 18 22 21 24 23 22 19 18 17 17 18 19 20 19 18 17 16 17 16 16
22 21 21 20 18 16 14 15 13 14 13 13 13 8 8 10 12 9 8 5 7 12 14 14 17 20 23 28 29 23 24 22 20 20 20 22 21 21 20 19 19 19 19
19 23 21 21 19 17 16 15 15 15 14 14 14 13 14 11 8 10 10 10 12 16 17 17 21 19 22 23 26 27 28 27 26 27 24 24 24 23 23 22 21 21 20
17 18 22 22 20 22 21 17 16 16 16 16 16 16 16 19 16 15 13 12 10 9 9 13 17 17 19 22 25 22 24 25 26 25 28 28 27 26 25 24 24 24 23
20 20 21 21 21 22 21 20 17 17 16 17 19 19 18 18 15 16 18 12 5 7 6 12 7 11 15 15 18 22 19 22 25 25 26 27 26 27 26 28 27 27 26
20 23 21 20 19 20 20 20 18 18 18 18 18 18 18 18 19 20 19 20 13 3 5 4 5 5 8 11 13 14 16 20 21 26 28 27 27 29 29 33 32 30 30
26 22 22 20 18 18 16 16 15 17 17 17 17 17 18 18 19 16 17 18 18 12 3 4 6 8 5 5 8 11 11 18 20 20 24 29 32 32 29 29 32 33 32
27 27 27 23 21 19 18 17 18 17 16 17 17 17 19 16 15 13 14 15 16 13 9 9 7 7 7 9 7 9 11 9 12 20 20 23 27 31 31 29 31 32 33
23 26 25 25 23 22 19 19 17 16 16 16 13 15 16 12 14 11 10 13 13 12 9 10 6 6 8 7 9 11 12 13 14 16 18 22 24 27 30 32 34 34 35
23 22 23 25 25 24 22 23 22 21 19 18 19 16 17 15 17 13 12 11 10 9 9 8 5 6 6 6 6 8 9 10 12 12 16 18 21 22 25 27 29 34 38
22 22 22 22 24 24 22 22 21 22 22 21 21 20 19 16 15 13 14 14 12 10 10 8 7 7 7 6 6 7 7 6 9 9 13 15 18 21 24 25 26 26 29
20 18 20 20 21 20 22 23 23 24 24 21 19 18 18 18 17 14 13 14 14 12 10 10 8 7 8 8 8 4 4 5 9 9 9 11 11 13 16 21 25 27 29
17 14 17 18 18 18 23 23 22 20 21 20 17 17 18 17 17 17 17 15 13 12 11 10 10 11 11 9 8 7 7 6 6 4 4 6 8 11 13 14 18 19 20
12 13 15 16 18 20 23 21 20 20 17 15 15 16 15 13 15 15 16 17 15 15 15 12 13 13 10 10 9 9 9 7 9 7 7 11 9 11 10 12 13 12 14
9 8 11 16 17 20 22 20 18 20 16 16 15 14 14 13 14 14 12 12 14 14 17 17 16 15 13 11 9 9 8 8 10 10 10 10 9 10 9 10 12 12 12
5 6 9 13 17 18 19 20 17 19 19 18 17 15 14 14 14 15 13 14 14 13 14 16 18 17 17 17 14 10 11 9 11 10 9 11 9 9 9 11 8 7 1
9 10 14 14 17 18 15 18 17 19 19 17 15 14 11 14 15 15 16 15 15 16 14 13 15 16 16 19 19 18 15 13 11 10 10 9 7 4 5 3 4 5 9
Wind_Direction
182 171 172 178 160 164 166 166 175 179 177 149 134 200 238 198 190 194 186 195 197 194 187 178 170 165 154 146 136 125 124 119 111 122 123 113 126 125 128 127 124 120 121
190 191 188 190 191 185 190 199 195 206 235 230 200 171 213 208 214 202 208 207 216 215 217 193 188 180 180 164 155 150 132 142 144 152 139 133 125 126 133 139 134 130 133
214 206 201 200 200 201 210 204 222 248 264 232 221 216 200 220 212 224 225 219 222 227 229 221 210 202 198 186 184 179 163 151 155 154 151 158 152 156 141 137 134 134 133
219 217 217 217 214 210 220 226 238 248 246 216 218 244 240 237 231 234 240 236 232 226 224 225 214 213 214 203 198 196 193 174 167 166 156 150 151 150 149 145 143 141 139
225 230 231 232 233 225 227 231 230 232 247 238 242 257 264 262 266 257 251 243 235 229 222 227 224 222 222 218 208 204 207 199 188 181 171 167 164 164 160 156 152 151 150
233 240 244 238 239 240 237 233 240 245 246 251 258 267 261 269 268 263 257 245 242 238 228 227 230 251 238 223 219 211 215 209 206 198 187 186 178 177 173 167 166 164 163
238 240 245 246 239 241 243 251 247 244 253 246 270 283 285 283 262 264 253 249 244 243 240 243 251 258 244 232 223 219 214 216 210 214 206 200 195 192 189 185 183 182 180
235 240 243 243 241 235 245 240 233 241 242 232 217 274 297 309 276 296 263 249 250 249 250 253 247 243 235 228 224 224 220 221 221 218 218 212 208 205 204 203 200 200 198
230 234 241 242 240 241 245 242 233 234 242 244 228 267 295 292 347 322 297 257 242 246 255 249 239 240 238 229 229 228 226 222 221 222 220 223 219 216 214 214 214 214 214
227 228 235 239 242 235 239 240 242 239 239 242 239 254 248 262 304 297 300 260 252 249 245 242 245 242 238 236 234 236 235 234 228 226 226 225 225 224 224 223 223 223 224
225 228 231 233 240 242 248 245 246 243 242 244 240 247 248 248 249 255 288 283 295 280 263 251 252 244 238 235 236 236 239 238 233 226 226 229 227 228 230 228 229 229 230
226 229 232 233 238 240 247 248 248 250 249 248 249 251 252 254 236 236 247 264 264 286 288 273 261 246 242 236 236 237 240 238 237 233 235 231 228 229 229 229 230 232 233
230 231 232 234 237 245 248 246 247 250 250 248 249 256 259 257 260 262 255 266 266 283 277 274 262 247 240 238 239 239 239 237 234 236 231 231 229 229 232 234 234 236 238
240 239 241 242 246 246 248 248 246 250 246 253 254 255 261 266 259 253 243 246 267 251 262 263 269 249 242 237 237 241 239 240 232 230 228 230 233 229 235 239 238 236 237
252 246 246 247 251 253 250 249 250 255 251 255 257 258 257 267 268 273 259 247 230 270 289 282 269 266 243 234 227 232 229 232 235 232 232 233 235 236 249 245 239 238 239
257 250 248 250 253 256 252 248 249 256 249 255 256 260 259 256 265 267 253 247 235 235 267 268 282 286 271 232 232 222 224 235 234 237 237 237 238 241 245 241 241 244 244
252 257 253 253 253 254 252 247 254 256 249 259 259 255 259 256 259 260 258 247 235 237 249 277 278 296 287 255 233 235 236 231 238 239 237 238 239 237 240 243 243 244 242
252 255 253 253 252 252 250 251 252 251 254 256 273 268 264 257 261 247 237 241 240 231 225 262 276 289 282 271 271 259 248 241 245 246 235 243 242 239 241 243 243 243 244
249 247 249 250 248 248 247 253 255 256 255 262 271 264 263 241 245 251 224 219 222 223 228 241 265 283 278 264 283 275 255 253 255 255 242 241 241 242 244 245 248 249 248
243 246 245 246 246 247 246 248 246 247 250 255 260 252 248 236 237 232 221 221 210 206 216 223 242 253 249 243 250 259 255 301 279 267 258 253 252 251 249 249 250 251 249
237 243 244 246 245 244 247 242 245 247 246 250 255 246 251 252 252 244 230 225 209 213 210 208 215 227 234 231 232 244 268 283 287 271 271 268 259 257 255 252 252 254 252
229 236 241 238 245 247 249 252 243 243 243 245 249 257 262 260 249 247 243 239 234 223 222 211 214 213 221 229 242 245 248 265 292 269 249 266 273 269 264 258 257 264 262
236 232 238 243 246 251 258 261 255 239 242 245 248 255 251 249 246 239 242 241 243 246 240 241 239 235 237 234 235 233 243 257 265 272 256 278 274 272 273 267 273 273 269
238 234 252 254 251 257 263 259 253 237 237 237 237 241 248 242 235 229 229 227 233 235 236 239 248 257 251 246 236 249 253 260 258 262 241 262 271 275 279 276 274 276 281
269 278 274 273 262 261 265 270 250 232 232 230 232 233 229 230 232 236 222 226 226 230 245 245 245 252 259 260 249 241 240 238 263 261 230 248 261 273 281 285 271 253 303
326 316 298 282 274 271 269 271 264 233 232 228 230 236 253 248 253 236 230 229 237 243 227 232 243 251 256 258 255 248 250 238 245 270 238 224 247 256 284 259 254 236 269
Height
876 878 879 880 881 883 885 885 886 887 888 888 888 889 889 889 891 892 892 892 892 892 892 894 894 895 896 897 897 897 898 899 899 899 901 901 902 902 903 904 905 906 907
876 878 879 880 881 883 885 886 887 887 888 888 889 889 889 889 890 890 891 892 892 893 893 892 896 896 897 897 898 898 899 899 900 901 902 903 904 904 905 906 906 907 908
875 877 879 880 882 883 884 885 887 887 888 888 889 888 888 889 890 890 890 890 890 891 893 893 894 896 896 897 898 899 899 900 900 901 902 903 904 906 906 906 907 908 910
875 876 877 880 882 883 884 885 886 886 887 887 887 888 888 888 888 888 888 889 889 891 892 894 895 895 895 896 897 899 900 900 902 902 903 903 905 906 907 908 908 910 911
874 875 877 879 880 882 884 884 885 885 886 886 886 886 886 886 886 887 887 887 889 888 889 891 892 894 894 894 895 897 899 900 901 902 903 904 905 906 907 908 909 911 912
872 874 876 877 879 881 882 883 883 884 885 886 885 886 885 884 883 883 884 884 886 886 887 888 889 891 892 892 894 895 897 899 900 901 902 904 905 906 907 908 910 911 912
869 872 874 875 877 878 879 881 882 883 884 884 884 885 882 879 879 879 880 880 882 883 884 886 886 888 890 890 891 894 895 896 899 901 902 902 904 905 907 908 909 911 912
865 868 871 873 874 875 876 878 880 881 882 882 884 884 880 879 876 875 876 876 876 881 881 881 882 884 886 887 888 890 893 895 897 899 900 901 902 904 905 907 909 910 911
861 864 867 870 872 873 874 874 877 878 879 880 882 883 880 880 877 874 874 873 874 875 875 877 877 879 881 883 885 886 889 891 894 897 898 899 900 901 903 905 907 908 910
858 860 863 866 869 871 872 873 875 876 877 878 880 878 880 881 880 875 873 872 872 871 870 873 872 875 876 877 880 882 885 887 889 892 894 896 898 899 900 902 904 906 907
855 858 860 862 865 867 869 870 871 872 874 876 877 878 877 878 878 878 871 870 871 868 868 867 867 869 870 872 874 876 879 882 884 887 889 892 893 896 897 899 900 902 904
853 854 857 858 861 863 865 867 868 870 871 872 873 874 873 873 873 874 872 869 868 864 863 862 862 863 863 865 866 869 872 875 879 881 884 887 889 891 893 895 896 898 899
852 852 854 855 857 858 861 863 864 866 867 868 868 868 868 866 868 868 868 866 866 862 860 857 855 857 858 859 860 862 865 868 871 875 878 881 884 886 888 890 892 894 895
849 850 851 852 853 855 856 858 860 861 863 862 862 862 863 861 862 862 862 861 861 860 858 855 853 853 852 854 855 857 859 862 865 868 872 876 879 881 882 884 886 888 890
847 846 848 849 849 850 852 853 855 856 856 856 856 857 857 857 856 855 857 858 859 857 852 851 851 849 851 850 852 852 855 857 859 863 866 869 872 875 876 877 880 881 883
841 843 842 844 844 846 847 849 850 850 850 851 851 851 851 850 851 851 851 852 854 855 853 852 851 850 848 849 848 850 850 853 854 857 859 861 864 867 869 871 873 875 877
834 837 838 839 839 840 841 842 842 844 844 844 844 844 844 845 845 846 846 847 848 850 850 850 849 848 848 847 848 848 848 848 850 851 853 855 856 859 861 864 865 867 869
828 829 832 832 833 834 835 835 836 838 837 836 839 839 837 840 840 842 842 843 844 845 847 847 847 848 847 847 846 845 844 845 845 846 846 848 849 851 853 855 856 858 860
820 822 824 824 825 826 828 829 829 831 831 830 830 831 831 833 834 836 837 837 840 842 844 844 845 845 846 846 846 845 844 843 843 843 844 844 844 846 847 847 848 849 851
813 815 816 816 817 818 820 821 822 823 823 823 823 824 825 827 829 830 831 832 833 836 838 840 842 843 843 843 844 845 844 841 843 842 842 841 840 840 841 842 842 842 842
804 805 809 809 810 810 811 811 813 816 817 817 818 820 822 822 826 827 829 829 829 831 833 834 836 838 839 839 839 839 839 838 839 838 838 838 838 837 836 835 835 835 835
798 798 800 800 803 802 801 802 806 809 810 811 815 817 821 820 822 824 826 827 828 829 831 831 831 831 832 834 835 836 836 836 834 834 836 837 836 835 833 832 831 829 829
796 793 794 794 794 793 795 798 801 805 806 809 811 813 815 815 815 818 821 822 824 827 829 829 829 828 829 830 831 831 832 832 832 834 835 832 831 830 829 828 826 825 825
791 787 788 789 787 787 789 793 795 799 801 802 803 805 809 810 811 813 815 817 819 820 821 824 826 826 826 826 826 826 828 830 830 829 830 829 826 825 824 823 822 822 821
786 782 781 784 783 781 783 786 790 793 794 795 796 798 800 803 806 809 812 813 813 814 816 818 819 821 822 823 823 822 822 825 823 822 823 822 820 819 819 819 818 817 818
780 778 777 778 778 778 777 779 784 786 790 792 795 796 800 803 806 806 808 810 811 811 809 811 812 813 815 816 817 817 818 818 818 816 815 817 815 816 813 813 814 815 815